[[{"header":{"parameterUnit":"m.s-1","parameterCategory":1,"la1":30.2991,"la2":30.254,"lo1":-89.0895,"lo2":-89.0444,"dy":0.0017,"dx":0.0017,"nx":28,"ny":28,"refTime":"2024-05-17T21:00:00:Z","depth":0,"parameterNumber":2,"parameterNumberName":"U-component_of_WINDS"},"data":[0,0,0,0,0,0,0,0,0,0,0,0,0,0,0,0,0,0,0,0,0,0,0,0,0,0,0,0,0,0,0,0,0,0,0,0,0,0,0,0,0,0,0,0,0,0,0,0,0,0,0,0,0,0,0,0,0,0,-1.1103,-1.1103,0,-1.1074,-1.1073,-1.1073,-1.1055,-1.1055,-1.1055,-1.1055,-1.1025,-1.1025,-1.1024,0,0,0,0,0,0,0,0,0,0,0,0,0,-1.1146,-1.1145,-1.1104,-1.1103,-1.1103,-1.1074,-1.1073,-1.1073,-1.1055,-1.1055,-1.1055,-1.1055,-1.1025,-1.1025,-1.1024,0,0,0,0,0,0,0,0,0,0,0,0,0,-1.1123,-1.1145,-1.1104,-1.109,-1.1089,-1.1074,-1.1073,-1.1073,-1.1055,-1.1055,-1.1055,-1.1055,-1.1026,-1.1025,-1.1024,-1.102,0,0,-1.102,-1.102,0,0,0,0,0,0,0,0,-1.1124,-1.1121,-1.1093,-1.1091,-1.109,-1.1068,-1.1077,-1.1055,-1.1055,-1.1068,-1.1055,-1.1055,-1.104,-1.1037,-1.1032,-1.1018,-1.1017,-1.102,-1.102,-1.1019,-1.1019,0,0,0,0,0,0,0,-1.1126,-1.1122,-1.1092,-1.1092,-1.109,-1.1086,-1.1083,-1.1073,-1.1055,-1.1067,-1.1066,-1.1062,-1.1039,-1.1033,-1.1031,-1.1017,-1.102,-1.1019,-1.1019,-1.1018,-1.0998,-1.0998,0,0,0,0,0,0,-1.1129,-1.1124,-1.1093,-1.1091,-1.1107,-1.1086,-1.1082,-1.1075,-1.1055,-1.1052,-1.1062,-1.1062,-1.1035,-1.1033,-1.103,-1.1024,-1.1019,-1.1018,-1.1018,-1.0997,-1.0998,-1.0998,0,0,0,0,0,0,-1.113,-1.1127,-1.1094,-1.1107,-1.1102,-1.1085,-1.1078,-1.1075,-1.1069,-1.1052,-1.1048,-1.106,-1.1035,-1.1032,-1.1022,-1.1022,-1.1018,-1.1017,-1.0997,-1.0997,-1.0998,-1.1011,0,0,0,0,0,0,-1.1132,-1.1127,-1.1125,-1.1107,-1.1102,-1.1086,-1.1078,-1.1074,-1.1067,-1.1066,-1.1048,-1.1045,-1.1035,-1.1024,-1.1021,-1.1021,-1.1016,-1.0997,-1.0997,-1.0998,-1.101,-1.1012,-1.1013,0,0,0,0,0,-1.1133,-1.1131,-1.1125,-1.1122,-1.1099,-1.1086,-1.1083,-1.1071,-1.1067,-1.1065,-1.1054,-1.1046,-1.1023,-1.1023,-1.102,-1.1019,-1.0997,-1.0997,-1.0998,-1.101,-1.1011,-1.1013,0,0,0,0,0,0,-1.115,-1.1128,-1.1122,-1.1113,-1.1102,-1.1083,-1.1081,-1.1073,-1.1062,-1.1061,-1.1046,-1.1042,-1.1034,-1.1026,-1.1027,-1.1014,-1.1009,-1.1009,-1.102,-1.1021,-1.1022,-1.1024,-1.1015,0,0,0,0,0,-1.1152,-1.1144,-1.1125,-1.1119,-1.1114,-1.1098,-1.1092,-1.1083,-1.1071,-1.1066,-1.1054,-1.1043,-1.1033,-1.1026,-1.1016,-1.1009,-1.1005,-1.1007,-1.1008,-1.1009,-1.1009,-1.1004,-1.1005,-1.0998,-1.0998,-1.0998,0,0,-1.1158,-1.1145,-1.114,-1.1122,-1.1112,-1.1104,-1.1094,-1.1086,-1.1079,-1.1065,-1.1055,-1.1046,-1.1032,-1.1024,-1.1019,-1.1016,-1.101,-1.101,-1.1011,-1.101,-1.1004,-1.1005,-1.1006,-1.0998,-1.0998,-1.0998,0,0,-1.1163,-1.1153,-1.1146,-1.1136,-1.1121,-1.1111,-1.1109,-1.1092,-1.1085,-1.1075,-1.1064,-1.1056,-1.104,-1.103,-1.1023,-1.1024,-1.1016,-1.1021,-1.1027,-1.1022,-1.1023,-1.1023,-1.1023,-1.1023,-1.1021,-1.1021,-1.1021,0,-1.1172,-1.1158,-1.1144,-1.1136,-1.1128,-1.1115,-1.1108,-1.1099,-1.1082,-1.1077,-1.1074,-1.1052,-1.1042,-1.1031,-1.1031,-1.1026,-1.1024,-1.1023,-1.1024,-1.1024,-1.1024,-1.1024,-1.1024,-1.1022,-1.1022,-1.1022,-1.1022,0,-1.1169,-1.116,-1.1156,-1.1139,-1.1131,-1.1124,-1.1109,-1.1103,-1.1095,-1.1085,-1.1075,-1.1062,-1.1049,-1.1046,-1.1038,-1.1033,-1.1032,-1.1027,-1.1021,-1.1026,-1.1025,-1.1025,-1.1023,-1.1023,-1.1022,-1.1022,0,0,-1.1184,-1.1159,-1.1158,-1.1149,-1.1132,-1.1124,-1.1116,-1.1103,-1.1098,-1.1086,-1.1079,-1.1065,-1.106,-1.1052,-1.1043,-1.1039,-1.1041,-1.1034,-1.1034,-1.1035,-1.1034,-1.1038,-1.1038,-1.1035,-1.1035,-1.1035,-1.1035,0,-1.1186,-1.117,-1.1158,-1.1147,-1.1138,-1.1125,-1.1118,-1.1106,-1.1097,-1.1088,-1.1078,-1.1068,-1.1062,-1.1057,-1.1052,-1.1041,-1.104,-1.1041,-1.1028,-1.1028,-1.1032,-1.1038,-1.1042,-1.1042,-1.1035,-1.1035,-1.1035,0,-1.1186,-1.1174,-1.1162,-1.1145,-1.1141,-1.1135,-1.1121,-1.1113,-1.11,-1.1093,-1.1084,-1.1075,-1.1066,-1.1062,-1.1049,-1.105,-1.1044,-1.1038,-1.1038,-1.1036,-1.1031,-1.1035,-1.1042,-1.1042,-1.1035,-1.1035,-1.1035,0,-1.1197,-1.1179,-1.1169,-1.1162,-1.1142,-1.1138,-1.1129,-1.1116,-1.1108,-1.1097,-1.1092,-1.108,-1.1073,-1.1064,-1.1052,-1.105,-1.1041,-1.1036,-1.1035,-1.1035,-1.1033,-1.1033,-1.1038,-1.103,-1.103,-1.103,-1.103,0,-1.12,-1.1193,-1.1173,-1.1167,-1.1159,-1.1145,-1.1137,-1.1128,-1.1116,-1.1108,-1.1096,-1.1089,-1.1074,-1.1065,-1.1055,-1.1046,-1.1043,-1.1038,-1.1035,-1.1038,-1.1039,-1.1034,-1.1033,-1.103,-1.103,-1.103,-1.103,0,-1.1211,-1.1197,-1.1185,-1.1167,-1.1162,-1.1157,-1.1141,-1.1135,-1.1125,-1.1115,-1.1112,-1.1096,-1.1085,-1.1072,-1.1057,-1.105,-1.1042,-1.1038,-1.1046,-1.1044,-1.1044,-1.1044,-1.1045,-1.1044,-1.1038,-1.1038,-1.1038,0,-1.1213,-1.1208,-1.1188,-1.1182,-1.1173,-1.1163,-1.1155,-1.1141,-1.1134,-1.1118,-1.1114,-1.1102,-1.1091,-1.1074,-1.1061,-1.105,-1.1046,-1.1047,-1.1044,-1.1047,-1.1045,-1.1045,-1.1044,-1.1048,-1.1048,-1.1048,-1.1048,0,-1.1219,-1.1212,-1.1202,-1.1188,-1.1179,-1.1168,-1.1157,-1.1152,-1.1136,-1.1128,-1.1116,-1.1108,-1.1092,-1.1081,-1.1067,-1.1059,-1.1051,-1.1049,-1.1048,-1.1051,-1.1055,-1.1052,-1.1048,-1.1049,-1.1049,-1.1049,-1.1049,-1.1049,-1.1225,-1.1219,-1.1204,-1.1193,-1.1182,-1.1172,-1.1165,-1.1154,-1.1143,-1.1129,-1.1122,-1.111,-1.1097,-1.1078,-1.107,-1.106,-1.1058,-1.1056,-1.1056,-1.1056,-1.1056,-1.1057,-1.1058,-1.1058,-1.1058,-1.1058,-1.1058,0,-1.123,-1.1219,-1.1209,-1.1193,-1.1183,-1.1176,-1.1163,-1.1156,-1.1146,-1.1134,-1.1123,-1.111,-1.1098,-1.1085,-1.1072,-1.1067,-1.1063,-1.1065,-1.1065,-1.1063,-1.106,-1.1061,-1.1068,-1.1068,-1.1068,-1.1068,-1.1068,-1.1068,-1.1231,-1.122,-1.1212,-1.1196,-1.1186,-1.1174,-1.1167,-1.1157,-1.1147,-1.1132,-1.1123,-1.1114,-1.1101,-1.1088,-1.1077,-1.1073,-1.1069,-1.1071,-1.1066,-1.1064,-1.1063,-1.1062,-1.1064,-1.1071,-1.1071,-1.107,-1.107,-1.107]},{"header":{"parameterUnit":"m.s-1","parameterCategory":1,"la1":30.2991,"la2":30.254,"lo1":-89.0895,"lo2":-89.0444,"dy":0.0017,"dx":0.0017,"nx":28,"ny":28,"refTime":"2024-05-17T21:00:00:Z","depth":0,"parameterNumber":3,"parameterNumberName":"V-component_of_WINDS"},"data":[0,0,0,0,0,0,0,0,0,0,0,0,0,0,0,0,0,0,0,0,0,0,0,0,0,0,0,0,0,0,0,0,0,0,0,0,0,0,0,0,0,0,0,0,0,0,0,0,0,0,0,0,0,0,0,0,0,0,4.4097,4.4098,0,4.4196,4.4197,4.4198,4.4192,4.4191,4.4189,4.4188,4.4288,4.4292,4.4296,0,0,0,0,0,0,0,0,0,0,0,0,0,4.3904,4.3907,4.4097,4.4099,4.41,4.4196,4.4197,4.4198,4.4192,4.4191,4.4189,4.4187,4.4287,4.4292,4.4296,0,0,0,0,0,0,0,0,0,0,0,0,0,4.3993,4.3908,4.4097,4.4108,4.411,4.4195,4.4197,4.4199,4.4193,4.4191,4.4188,4.4186,4.4285,4.4291,4.4297,4.4377,0,0,4.4315,4.4318,0,0,0,0,0,0,0,0,4.3988,4.4001,4.4106,4.4108,4.411,4.4179,4.4165,4.4258,4.4193,4.4161,4.4188,4.4185,4.4254,4.4262,4.4285,4.4382,4.4386,4.4316,4.432,4.4322,4.4324,0,0,0,0,0,0,0,4.3982,4.3996,4.4136,4.4107,4.411,4.4108,4.4119,4.4183,4.4218,4.4164,4.4164,4.4176,4.4255,4.428,4.4288,4.4387,4.4316,4.4321,4.4325,4.4327,4.4555,4.4557,0,0,0,0,0,0,4.3974,4.3991,4.4133,4.4139,4.4043,4.4114,4.4125,4.4159,4.4218,4.4225,4.4177,4.4175,4.427,4.4281,4.4291,4.439,4.4322,4.4328,4.4331,4.4553,4.4556,4.4558,0,0,0,0,0,0,4.3969,4.3986,4.4129,4.4065,4.4083,4.4119,4.4158,4.4162,4.4187,4.4228,4.4234,4.4197,4.4269,4.4283,4.4356,4.4393,4.433,4.4336,4.455,4.4554,4.4557,4.4586,0,0,0,0,0,0,4.3964,4.3985,4.4016,4.4066,4.4087,4.4193,4.416,4.4166,4.4198,4.4196,4.4247,4.4254,4.4268,4.4347,4.4362,4.44,4.4341,4.4547,4.4551,4.4556,4.4582,4.4591,4.4598,0,0,0,0,0,4.3957,4.402,4.4017,4.4035,4.4126,4.4195,4.4207,4.4222,4.4201,4.4232,4.4258,4.4252,4.4386,4.4355,4.4371,4.4412,4.4544,4.455,4.4555,4.4579,4.4589,4.4598,0,0,0,0,0,0,4.3973,4.4027,4.4025,4.4106,4.4146,4.4194,4.4234,4.4232,4.4279,4.4275,4.4292,4.4304,4.4378,4.4402,4.4366,4.4493,4.4462,4.4472,4.4475,4.4485,4.4492,4.4485,4.4346,0,0,0,0,0,4.3986,4.4037,4.4081,4.4148,4.4169,4.4198,4.4228,4.4237,4.4279,4.4296,4.4327,4.4368,4.4419,4.4453,4.4502,4.4585,4.4597,4.4621,4.4629,4.4635,4.4643,4.469,4.4701,4.4576,4.4576,4.4576,0,0,4.4013,4.4049,4.408,4.4153,4.4185,4.4238,4.4212,4.4269,4.4308,4.4304,4.4376,4.44,4.4447,4.4526,4.4562,4.4548,4.468,4.4642,4.4647,4.4652,4.4697,4.4708,4.4719,4.458,4.458,4.4579,0,0,4.4091,4.4122,4.4182,4.4215,4.4264,4.4283,4.4297,4.4345,4.4361,4.4433,4.4432,4.4478,4.4566,4.46,4.4629,4.4719,4.4715,4.4734,4.4775,4.482,4.483,4.4839,4.4872,4.4883,4.4742,4.4742,4.4742,0,4.4118,4.4198,4.4213,4.4271,4.4303,4.4301,4.4363,4.4393,4.4456,4.4478,4.4461,4.4572,4.4603,4.469,4.4712,4.4735,4.4752,4.4729,4.4827,4.4836,4.4845,4.4877,4.4889,4.4744,4.4744,4.4743,4.4743,0,4.4231,4.4286,4.4328,4.439,4.4426,4.4485,4.4509,4.4544,4.4549,4.4569,4.4643,4.468,4.4738,4.4759,4.4764,4.4847,4.4837,4.4823,4.4794,4.4859,4.4889,4.4901,4.4747,4.4746,4.4745,4.4745,0,0,4.4322,4.439,4.4406,4.4434,4.4487,4.453,4.4589,4.4645,4.4676,4.4718,4.4769,4.4843,4.4831,4.4864,4.4872,4.4912,4.4982,4.4894,4.4895,4.491,4.5077,4.5087,4.5101,4.4979,4.4982,4.4983,4.5073,0,4.4406,4.4511,4.4526,4.4618,4.467,4.4669,4.472,4.4759,4.4779,4.4826,4.4848,4.4901,4.4881,4.4901,4.4939,4.4965,4.5016,4.4959,4.5027,4.5029,4.5017,4.5117,4.5129,4.5211,4.5085,4.5087,4.5088,0,4.4519,4.4565,4.4663,4.471,4.4732,4.4778,4.4831,4.4875,4.4919,4.4931,4.4967,4.4971,4.5032,4.4999,4.5083,4.5044,4.5073,4.5089,4.5093,4.5101,4.5064,4.5129,4.5238,4.5251,4.5107,4.5105,4.5104,0,4.4577,4.4664,4.4734,4.4758,4.4814,4.4846,4.4871,4.4912,4.4945,4.4991,4.5013,4.5065,4.5094,4.5134,4.5153,4.5126,4.5237,4.5204,4.5249,4.5249,4.5274,4.5272,4.539,4.5289,4.5289,4.5289,4.5289,0,4.4671,4.4731,4.4761,4.4805,4.4872,4.4888,4.4954,4.4978,4.5014,4.5062,4.5064,4.5109,4.5129,4.5177,4.5192,4.526,4.5273,4.5285,4.5288,4.5286,4.5285,4.5306,4.5301,4.5292,4.5292,4.5291,4.529,0,4.4749,4.4771,4.4848,4.4894,4.4907,4.4955,4.4995,4.5037,4.5056,4.5117,4.5132,4.5163,4.522,4.5242,4.531,4.532,4.54,4.5398,4.5386,4.5387,4.5431,4.5427,4.5568,4.5588,4.5472,4.5474,4.5474,0,4.4808,4.4854,4.4906,4.4938,4.4964,4.5016,4.5049,4.5066,4.5101,4.5154,4.519,4.5246,4.5292,4.5383,4.5412,4.5465,4.5465,4.551,4.5473,4.5469,4.5467,4.5465,4.547,4.5518,4.5519,4.552,4.5521,0,4.491,4.4919,4.4968,4.5021,4.5061,4.5103,4.5144,4.517,4.5193,4.5232,4.529,4.5326,4.5397,4.5453,4.5507,4.5533,4.5531,4.5532,4.5546,4.5545,4.5536,4.5543,4.5406,4.5529,4.5529,4.5528,4.5528,4.5527,4.4982,4.5023,4.5066,4.512,4.5153,4.5191,4.5233,4.5258,4.5307,4.5366,4.5372,4.5435,4.5477,4.555,4.5577,4.5626,4.5614,4.5633,4.5639,4.5644,4.5647,4.5527,4.5636,4.5636,4.5636,4.5636,4.5635,0,4.5086,4.5113,4.5163,4.5221,4.5263,4.5257,4.5302,4.5338,4.5393,4.5432,4.5478,4.5545,4.5599,4.5632,4.5687,4.572,4.572,4.5734,4.5732,4.5738,4.5654,4.5638,4.5732,4.5732,4.5732,4.5732,4.5732,4.5732,4.5146,4.5216,4.523,4.5316,4.5343,4.5404,4.543,4.5466,4.5497,4.5572,4.5617,4.5638,4.5675,4.5732,4.5782,4.579,4.5811,4.5825,4.5833,4.5754,4.5744,4.5735,4.572,4.5829,4.5829,4.5913,4.5914,4.5914]}]]